FHERM EGBB-EDDF

Flight info

Callsign FHERM
Flight time N/A
Altitude 5000
Route COWLY Q70 BIG L9 KONAN DCT EHRD DCT SPI T180 NIVNU T847 IMCOM IMCOM1C
Aircraft BE58/L-SDFGRY/C

Departure

Time N/A
Airport Birmingham Airport (EGBB)

Arrival

Time 2026-04-15 15:58
Airport Frankfurt Main Airport (EDDF)
Time Latitude Longitude Altitude Speed Heading
2026-04-15 14:40 51.96149 4.45640 -14 ft 0 kts 28°
2026-04-15 14:41 51.96160 4.45647 -14 ft 6 kts 10°
2026-04-15 14:42 51.96227 4.45579 -14 ft 16 kts 304°
2026-04-15 14:42 51.96239 4.45407 -11 ft 1 kts 237°
2026-04-15 14:42 51.96218 4.45357 -11 ft 18 kts 233°
2026-04-15 14:43 51.96039 4.44904 -14 ft 84 kts 236°
2026-04-15 14:43 51.95740 4.44068 455 ft 87 kts 233°
2026-04-15 14:43 51.95473 4.43187 926 ft 95 kts 238°
2026-04-15 14:43 51.95006 4.42246 1142 ft 119 kts 207°
2026-04-15 14:44 51.94120 4.42363 1298 ft 145 kts 158°
2026-04-15 14:44 51.93225 4.43099 1715 ft 146 kts 154°
2026-04-15 14:44 51.92384 4.44031 2147 ft 147 kts 147°
2026-04-15 14:44 51.91601 4.45051 2602 ft 143 kts 146°
2026-04-15 14:45 51.90854 4.46084 2990 ft 144 kts 144°
2026-04-15 14:45 51.90089 4.47186 3321 ft 148 kts 143°
2026-04-15 14:45 51.89337 4.48304 3753 ft 146 kts 142°
2026-04-15 14:45 51.88586 4.49451 4089 ft 149 kts 142°
2026-04-15 14:46 51.87839 4.50654 4413 ft 154 kts 138°
2026-04-15 14:46 51.87087 4.51861 4735 ft 155 kts 140°
2026-04-15 14:46 51.86339 4.53116 5056 ft 157 kts 139°
2026-04-15 14:46 51.85575 4.54398 5393 ft 158 kts 140°
2026-04-15 14:47 51.84810 4.55673 5732 ft 159 kts 140°
2026-04-15 14:47 51.84042 4.56952 6043 ft 160 kts 140°
2026-04-15 14:47 51.83223 4.58303 6110 ft 175 kts 140°
2026-04-15 14:47 51.82330 4.59776 6106 ft 186 kts 139°
2026-04-15 14:48 51.81427 4.61273 6110 ft 187 kts 139°
2026-04-15 14:48 51.80514 4.62784 6114 ft 187 kts 139°
2026-04-15 14:48 51.79615 4.64270 6110 ft 187 kts 139°
2026-04-15 14:48 51.78709 4.65765 6100 ft 186 kts 140°
2026-04-15 14:49 51.77801 4.67261 6096 ft 186 kts 139°
2026-04-15 14:49 51.76895 4.68753 6099 ft 185 kts 139°
2026-04-15 14:49 51.75994 4.70236 6096 ft 185 kts 139°
2026-04-15 14:49 51.75089 4.71725 6102 ft 185 kts 140°
2026-04-15 14:50 51.74187 4.73207 6104 ft 186 kts 139°
2026-04-15 14:50 51.73268 4.74715 6100 ft 186 kts 140°
2026-04-15 14:50 51.72361 4.76204 6099 ft 187 kts 140°
2026-04-15 14:50 51.71458 4.77685 6102 ft 187 kts 139°
2026-04-15 14:51 51.70542 4.79187 6105 ft 186 kts 140°
2026-04-15 14:51 51.69642 4.80663 6102 ft 187 kts 139°
2026-04-15 14:51 51.68729 4.82157 6096 ft 187 kts 139°
2026-04-15 14:51 51.67805 4.83669 6098 ft 187 kts 139°
2026-04-15 14:52 51.66897 4.85154 6107 ft 187 kts 139°
2026-04-15 14:52 51.65981 4.86652 6108 ft 187 kts 139°
2026-04-15 14:52 51.65070 4.88138 6106 ft 187 kts 139°
2026-04-15 14:52 51.64146 4.89648 6096 ft 187 kts 139°
2026-04-15 14:53 51.63234 4.91135 6114 ft 187 kts 139°
2026-04-15 14:53 51.62318 4.92629 6118 ft 187 kts 139°
2026-04-15 14:53 51.61413 4.94103 6120 ft 187 kts 139°
2026-04-15 14:53 51.60496 4.95596 6120 ft 187 kts 139°
2026-04-15 14:54 51.59577 4.97092 6119 ft 188 kts 139°
2026-04-15 14:54 51.58655 4.98591 6117 ft 188 kts 139°
2026-04-15 14:54 51.57729 5.00097 6115 ft 188 kts 139°
2026-04-15 14:54 51.56820 5.01574 6115 ft 188 kts 139°
2026-04-15 14:55 51.55896 5.03073 6115 ft 188 kts 139°
2026-04-15 14:55 51.54974 5.04568 6115 ft 188 kts 139°
2026-04-15 14:55 51.54054 5.06060 6118 ft 188 kts 139°
2026-04-15 14:55 51.53184 5.07639 6116 ft 190 kts 129°
2026-04-15 14:56 51.52437 5.09407 6114 ft 190 kts 127°
2026-04-15 14:56 51.51710 5.11182 6116 ft 190 kts 127°
2026-04-15 14:56 51.50995 5.12941 6118 ft 190 kts 127°
2026-04-15 14:56 51.50279 5.14712 6120 ft 190 kts 127°
2026-04-15 14:57 51.49560 5.16493 6123 ft 190 kts 127°
2026-04-15 14:57 51.48837 5.18288 6133 ft 190 kts 127°
2026-04-15 14:57 51.48119 5.20073 6114 ft 191 kts 127°
2026-04-15 14:57 51.47406 5.21842 6114 ft 190 kts 127°
2026-04-15 14:58 51.46684 5.23632 6126 ft 190 kts 127°
2026-04-15 14:58 51.45968 5.25406 6131 ft 190 kts 126°
2026-04-15 14:58 51.45242 5.27207 6131 ft 191 kts 127°
2026-04-15 14:58 51.44521 5.28992 6132 ft 190 kts 127°
2026-04-15 14:59 51.43804 5.30766 6134 ft 190 kts 126°
2026-04-15 14:59 51.43089 5.32534 6134 ft 190 kts 126°
2026-04-15 14:59 51.42372 5.34307 6134 ft 190 kts 126°
2026-04-15 14:59 51.41649 5.36094 6134 ft 190 kts 126°
2026-04-15 15:00 51.40929 5.37870 6133 ft 190 kts 126°
2026-04-15 15:00 51.40205 5.39657 6134 ft 190 kts 126°
2026-04-15 15:00 51.39488 5.41424 6135 ft 190 kts 126°
2026-04-15 15:00 51.38772 5.43190 6136 ft 190 kts 126°
2026-04-15 15:01 51.38047 5.44974 6141 ft 190 kts 127°
2026-04-15 15:01 51.37331 5.46734 6140 ft 189 kts 127°
2026-04-15 15:01 51.36612 5.48503 6137 ft 190 kts 127°
2026-04-15 15:01 51.35893 5.50269 6134 ft 189 kts 127°
2026-04-15 15:02 51.35178 5.52024 6129 ft 189 kts 126°
2026-04-15 15:02 51.34457 5.53791 6141 ft 189 kts 127°
2026-04-15 15:02 51.33743 5.55543 6138 ft 189 kts 126°
2026-04-15 15:02 51.33026 5.57299 6137 ft 189 kts 127°
2026-04-15 15:03 51.32305 5.59064 6135 ft 189 kts 126°
2026-04-15 15:03 51.31593 5.60808 6142 ft 189 kts 126°
2026-04-15 15:03 51.30870 5.62575 6141 ft 189 kts 127°
2026-04-15 15:03 51.30158 5.64314 6139 ft 188 kts 127°
2026-04-15 15:04 51.29440 5.66070 6138 ft 188 kts 127°
2026-04-15 15:04 51.28723 5.67819 6135 ft 188 kts 127°
2026-04-15 15:04 51.28011 5.69556 6136 ft 188 kts 127°
2026-04-15 15:04 51.27291 5.71305 6136 ft 188 kts 127°
2026-04-15 15:05 51.26569 5.73067 6150 ft 187 kts 127°
2026-04-15 15:05 51.25866 5.74780 6331 ft 185 kts 127°
2026-04-15 15:05 51.25165 5.76484 6574 ft 181 kts 127°
2026-04-15 15:05 51.24484 5.78140 6845 ft 177 kts 128°
2026-04-15 15:06 51.23151 5.81375 7385 ft 173 kts 127°
2026-04-15 15:06 51.22492 5.82975 7650 ft 173 kts 127°
2026-04-15 15:06 51.21833 5.84571 7914 ft 172 kts 128°
2026-04-15 15:07 51.21185 5.86139 8185 ft 171 kts 127°
2026-04-15 15:07 51.20532 5.87722 8455 ft 169 kts 128°
2026-04-15 15:07 51.19900 5.89252 8726 ft 166 kts 128°
2026-04-15 15:07 51.19275 5.90765 8993 ft 162 kts 128°
2026-04-15 15:08 51.18665 5.92242 9251 ft 157 kts 128°
2026-04-15 15:08 51.18069 5.93681 9501 ft 152 kts 128°
2026-04-15 15:08 51.17502 5.95051 9772 ft 147 kts 128°
2026-04-15 15:08 51.16940 5.96405 9919 ft 150 kts 128°
2026-04-15 15:09 51.16347 5.97829 9978 ft 159 kts 127°
2026-04-15 15:09 51.15723 5.99330 10048 ft 166 kts 127°
2026-04-15 15:09 51.15072 6.00899 10113 ft 171 kts 127°
2026-04-15 15:09 51.14401 6.02514 10127 ft 179 kts 127°
2026-04-15 15:10 51.13696 6.04210 10134 ft 188 kts 127°
2026-04-15 15:10 51.12961 6.05975 10136 ft 195 kts 127°
2026-04-15 15:10 51.12211 6.07779 10135 ft 200 kts 127°
2026-04-15 15:10 51.11426 6.09665 10136 ft 204 kts 127°
2026-04-15 15:11 51.10639 6.11554 10135 ft 206 kts 126°
2026-04-15 15:11 51.09843 6.13464 10136 ft 208 kts 127°
2026-04-15 15:11 51.09041 6.15387 10134 ft 209 kts 127°
2026-04-15 15:11 51.08233 6.17321 10131 ft 210 kts 127°
2026-04-15 15:12 51.07422 6.19262 10134 ft 210 kts 126°
2026-04-15 15:12 51.06615 6.21190 10135 ft 211 kts 126°
2026-04-15 15:12 51.05790 6.23161 10135 ft 212 kts 126°
2026-04-15 15:12 51.04979 6.25099 10135 ft 212 kts 126°
2026-04-15 15:13 51.04155 6.27066 10135 ft 212 kts 126°
2026-04-15 15:13 51.03347 6.28990 10135 ft 211 kts 126°
2026-04-15 15:13 51.02523 6.30951 10135 ft 211 kts 126°
2026-04-15 15:13 51.01717 6.32870 10135 ft 211 kts 126°
2026-04-15 15:14 51.00905 6.34802 10135 ft 211 kts 126°
2026-04-15 15:14 51.00081 6.36760 10136 ft 211 kts 126°
2026-04-15 15:14 50.99273 6.38678 10136 ft 211 kts 126°
2026-04-15 15:14 50.98453 6.40624 10136 ft 211 kts 126°
2026-04-15 15:15 50.97646 6.42537 10135 ft 211 kts 126°
2026-04-15 15:15 50.96820 6.44492 10134 ft 212 kts 126°
2026-04-15 15:15 50.96005 6.46423 10136 ft 212 kts 126°
2026-04-15 15:15 50.95188 6.48354 10136 ft 212 kts 126°
2026-04-15 15:16 50.94364 6.50303 10137 ft 212 kts 126°
2026-04-15 15:16 50.93540 6.52249 10138 ft 212 kts 126°
2026-04-15 15:16 50.92729 6.54164 10138 ft 212 kts 126°
2026-04-15 15:16 50.91901 6.56117 10140 ft 212 kts 126°
2026-04-15 15:17 50.91076 6.58061 10139 ft 211 kts 126°
2026-04-15 15:17 50.90258 6.59990 10138 ft 211 kts 126°
2026-04-15 15:17 50.89442 6.61908 10139 ft 211 kts 126°
2026-04-15 15:17 50.88617 6.63850 10140 ft 211 kts 126°
2026-04-15 15:18 50.87787 6.65800 10140 ft 211 kts 126°
2026-04-15 15:18 50.86958 6.67748 10141 ft 211 kts 126°
2026-04-15 15:18 50.86137 6.69672 10141 ft 211 kts 127°
2026-04-15 15:18 50.85307 6.71619 10143 ft 212 kts 127°
2026-04-15 15:19 50.84484 6.73547 10137 ft 212 kts 126°
2026-04-15 15:19 50.83661 6.75474 10139 ft 212 kts 126°
2026-04-15 15:19 50.82836 6.77403 10140 ft 212 kts 127°
2026-04-15 15:19 50.82008 6.79340 10141 ft 212 kts 126°
2026-04-15 15:20 50.81186 6.81259 10140 ft 212 kts 126°
2026-04-15 15:20 50.80354 6.83201 10141 ft 212 kts 126°
2026-04-15 15:20 50.79500 6.85094 10135 ft 211 kts 136°
2026-04-15 15:20 50.78300 6.86392 10149 ft 208 kts 152°
2026-04-15 15:21 50.77036 6.87496 10146 ft 208 kts 154°
2026-04-15 15:21 50.75746 6.88575 10140 ft 208 kts 155°
2026-04-15 15:21 50.74466 6.89626 10142 ft 207 kts 155°
2026-04-15 15:21 50.73182 6.90665 10143 ft 207 kts 155°
2026-04-15 15:22 50.71906 6.91693 10144 ft 208 kts 156°
2026-04-15 15:22 50.70619 6.92724 10139 ft 208 kts 156°
2026-04-15 15:22 50.69327 6.93756 10141 ft 207 kts 156°
2026-04-15 15:22 50.68047 6.94777 10139 ft 207 kts 156°
2026-04-15 15:23 50.66757 6.95804 10139 ft 208 kts 155°
2026-04-15 15:23 50.65458 6.96837 10144 ft 208 kts 155°
2026-04-15 15:23 50.64173 6.97859 10142 ft 208 kts 156°
2026-04-15 15:23 50.62897 6.98874 10142 ft 208 kts 155°
2026-04-15 15:24 50.61597 6.99906 10141 ft 208 kts 155°
2026-04-15 15:24 50.60298 7.00937 10140 ft 208 kts 155°
2026-04-15 15:24 50.59018 7.01953 10140 ft 208 kts 155°
2026-04-15 15:24 50.57717 7.02983 10139 ft 208 kts 155°
2026-04-15 15:25 50.56413 7.04016 10007 ft 213 kts 155°
2026-04-15 15:25 50.55098 7.05058 9856 ft 209 kts 155°
2026-04-15 15:25 50.53834 7.06059 9708 ft 203 kts 155°
2026-04-15 15:25 50.52575 7.07055 9559 ft 200 kts 155°
2026-04-15 15:26 50.51339 7.08030 9412 ft 199 kts 155°
2026-04-15 15:26 50.50102 7.09007 9262 ft 198 kts 156°
2026-04-15 15:26 50.48882 7.09970 9113 ft 197 kts 156°
2026-04-15 15:26 50.47655 7.10937 8961 ft 196 kts 155°
2026-04-15 15:27 50.46443 7.11893 8811 ft 195 kts 155°
2026-04-15 15:27 50.45258 7.12828 8850 ft 188 kts 155°
2026-04-15 15:27 50.44111 7.13732 8943 ft 182 kts 156°
2026-04-15 15:27 50.42989 7.14613 9039 ft 177 kts 155°
2026-04-15 15:28 50.41893 7.15476 9136 ft 175 kts 156°
2026-04-15 15:28 50.40814 7.16323 9232 ft 172 kts 156°
2026-04-15 15:28 50.39883 7.17446 9325 ft 172 kts 133°
2026-04-15 15:28 50.39131 7.18909 9422 ft 170 kts 130°
2026-04-15 15:29 50.38423 7.20362 9515 ft 167 kts 129°
2026-04-15 15:29 50.37730 7.21813 9609 ft 164 kts 129°
2026-04-15 15:29 50.37056 7.23240 9704 ft 161 kts 129°
2026-04-15 15:29 50.36399 7.24639 9797 ft 158 kts 129°
2026-04-15 15:30 50.35676 7.25880 9895 ft 152 kts 147°
2026-04-15 15:30 50.35031 7.27157 10001 ft 151 kts 116°
2026-04-15 15:30 50.34641 7.28676 10103 ft 149 kts 113°
2026-04-15 15:30 50.34273 7.30177 10187 ft 149 kts 113°
2026-04-15 15:31 50.33888 7.31744 10171 ft 161 kts 113°
2026-04-15 15:31 50.33476 7.33417 10175 ft 169 kts 113°
2026-04-15 15:31 50.33038 7.35183 10175 ft 177 kts 113°
2026-04-15 15:31 50.32577 7.37033 10177 ft 189 kts 113°
2026-04-15 15:32 50.32084 7.38993 10175 ft 196 kts 113°
2026-04-15 15:32 50.31576 7.41004 10177 ft 201 kts 113°
2026-04-15 15:32 50.31060 7.43041 10175 ft 206 kts 112°
2026-04-15 15:32 50.30524 7.45142 10174 ft 208 kts 113°
2026-04-15 15:33 50.29990 7.47242 10171 ft 210 kts 113°
2026-04-15 15:33 50.29448 7.49370 10171 ft 211 kts 112°
2026-04-15 15:33 50.28899 7.51511 10169 ft 212 kts 113°
2026-04-15 15:33 50.28355 7.53634 10172 ft 212 kts 113°
2026-04-15 15:34 50.27801 7.55796 10174 ft 212 kts 112°
2026-04-15 15:34 50.27256 7.57920 10170 ft 213 kts 113°
2026-04-15 15:34 50.26702 7.60095 10169 ft 213 kts 112°
2026-04-15 15:34 50.26153 7.62238 10167 ft 213 kts 113°
2026-04-15 15:35 50.25603 7.64390 10169 ft 213 kts 112°
2026-04-15 15:35 50.25055 7.66531 10168 ft 213 kts 114°
2026-04-15 15:35 50.24504 7.68689 10170 ft 212 kts 114°
2026-04-15 15:35 50.23954 7.70840 10171 ft 212 kts 114°
2026-04-15 15:36 50.23406 7.72970 10170 ft 209 kts 114°
2026-04-15 15:36 50.22868 7.75062 10171 ft 210 kts 113°
2026-04-15 15:36 50.22318 7.77187 10171 ft 211 kts 113°
2026-04-15 15:36 50.21767 7.79312 10172 ft 211 kts 113°
2026-04-15 15:37 50.21220 7.81414 10174 ft 211 kts 113°
2026-04-15 15:37 50.20662 7.83556 10176 ft 211 kts 113°
2026-04-15 15:37 50.20113 7.85661 10177 ft 211 kts 113°
2026-04-15 15:37 50.19558 7.87804 10179 ft 212 kts 113°
2026-04-15 15:38 50.19013 7.89920 10180 ft 212 kts 113°
2026-04-15 15:38 50.18375 7.91985 10169 ft 209 kts 133°
2026-04-15 15:38 50.17163 7.93059 10193 ft 203 kts 163°
2026-04-15 15:38 50.16072 7.94449 10190 ft 209 kts 122°
2026-04-15 15:39 50.15474 7.96522 10197 ft 210 kts 114°
2026-04-15 15:39 50.14926 7.98640 10195 ft 210 kts 113°
2026-04-15 15:39 50.14382 8.00751 10197 ft 210 kts 113°
2026-04-15 15:39 50.13833 8.02865 10197 ft 211 kts 113°
2026-04-15 15:40 50.13288 8.04960 10197 ft 211 kts 113°
2026-04-15 15:40 50.12736 8.07067 10199 ft 211 kts 113°
2026-04-15 15:40 50.12177 8.09197 10198 ft 211 kts 113°
2026-04-15 15:40 50.11615 8.11334 10193 ft 212 kts 113°
2026-04-15 15:41 50.11059 8.13449 10192 ft 212 kts 113°
2026-04-15 15:41 50.10499 8.15577 10188 ft 212 kts 113°
2026-04-15 15:41 50.09939 8.17701 10187 ft 212 kts 113°
2026-04-15 15:41 50.09478 8.19853 10177 ft 212 kts 105°
2026-04-15 15:42 50.09149 8.22098 10176 ft 212 kts 103°
2026-04-15 15:42 50.08833 8.24329 10189 ft 211 kts 103°
2026-04-15 15:42 50.08516 8.26582 10195 ft 212 kts 103°
2026-04-15 15:42 50.08202 8.28820 10187 ft 212 kts 103°
2026-04-15 15:43 50.07887 8.31047 10192 ft 212 kts 103°
2026-04-15 15:43 50.07551 8.33292 10193 ft 212 kts 104°
2026-04-15 15:43 50.07202 8.35542 10194 ft 212 kts 104°
2026-04-15 15:43 50.07234 8.37789 10188 ft 213 kts 67°
2026-04-15 15:44 50.07984 8.39740 10198 ft 212 kts 54°
2026-04-15 15:44 50.08825 8.41647 10195 ft 212 kts 54°
2026-04-15 15:44 50.09663 8.43544 10196 ft 211 kts 54°
2026-04-15 15:44 50.10491 8.45416 10197 ft 210 kts 54°
2026-04-15 15:45 50.11264 8.47325 10191 ft 209 kts 67°
2026-04-15 15:45 50.11713 8.49478 10198 ft 209 kts 73°
2026-04-15 15:45 50.12122 8.51633 10197 ft 209 kts 73°
2026-04-15 15:45 50.12531 8.53796 10199 ft 209 kts 73°
2026-04-15 15:46 50.12941 8.55977 10198 ft 209 kts 73°
2026-04-15 15:46 50.13351 8.58157 10208 ft 208 kts 73°
2026-04-15 15:46 50.13754 8.60306 10201 ft 209 kts 73°
2026-04-15 15:46 50.14162 8.62482 10120 ft 213 kts 73°
2026-04-15 15:47 50.14577 8.64707 9904 ft 215 kts 73°
2026-04-15 15:47 50.14994 8.66946 9677 ft 212 kts 74°
2026-04-15 15:47 50.15403 8.69133 9431 ft 208 kts 74°
2026-04-15 15:47 50.15801 8.71262 9148 ft 204 kts 74°
2026-04-15 15:48 50.16202 8.73393 8849 ft 203 kts 74°
2026-04-15 15:48 50.16597 8.75478 8550 ft 201 kts 74°
2026-04-15 15:48 50.16995 8.77552 8250 ft 200 kts 74°
2026-04-15 15:48 50.17396 8.79629 7952 ft 198 kts 73°
2026-04-15 15:49 50.17789 8.81656 7660 ft 198 kts 74°
2026-04-15 15:49 50.18191 8.83702 7360 ft 196 kts 74°
2026-04-15 15:49 50.18589 8.85728 7066 ft 195 kts 74°
2026-04-15 15:49 50.18568 8.87745 6766 ft 190 kts 114°
2026-04-15 15:50 50.17800 8.89367 6475 ft 185 kts 134°
2026-04-15 15:50 50.16928 8.90834 6162 ft 185 kts 134°
2026-04-15 15:50 50.16051 8.92330 5785 ft 188 kts 133°
2026-04-15 15:50 50.15151 8.93797 5404 ft 186 kts 141°
2026-04-15 15:51 50.13949 8.94325 5028 ft 184 kts 187°
2026-04-15 15:51 50.12859 8.93376 4652 ft 185 kts 231°
2026-04-15 15:51 50.12171 8.91687 4286 ft 185 kts 238°
2026-04-15 15:51 50.11506 8.89988 3916 ft 186 kts 238°
2026-04-15 15:52 50.10995 8.88179 3801 ft 176 kts 249°
2026-04-15 15:52 50.10594 8.86412 3825 ft 170 kts 250°
2026-04-15 15:52 50.10202 8.84712 3783 ft 167 kts 249°
2026-04-15 15:52 50.09796 8.82991 3586 ft 171 kts 249°
2026-04-15 15:53 50.09389 8.81264 3376 ft 167 kts 249°
2026-04-15 15:53 50.08993 8.79589 3173 ft 160 kts 249°
2026-04-15 15:53 50.08646 8.78121 2976 ft 136 kts 248°
2026-04-15 15:53 50.08326 8.76769 2805 ft 130 kts 248°
2026-04-15 15:54 50.08015 8.75460 2634 ft 128 kts 248°
2026-04-15 15:54 50.07707 8.74160 2460 ft 128 kts 248°
2026-04-15 15:54 50.07393 8.72837 2285 ft 128 kts 248°
2026-04-15 15:54 50.07085 8.71546 2114 ft 128 kts 248°
2026-04-15 15:55 50.06779 8.70260 1942 ft 127 kts 248°
2026-04-15 15:55 50.06472 8.68968 1770 ft 126 kts 248°
2026-04-15 15:55 50.06167 8.67686 1606 ft 124 kts 248°
2026-04-15 15:55 50.05873 8.66449 1439 ft 121 kts 248°
2026-04-15 15:56 50.05582 8.65228 1279 ft 120 kts 248°
2026-04-15 15:56 50.05295 8.64025 1160 ft 117 kts 248°
2026-04-15 15:56 50.05020 8.62859 1037 ft 110 kts 246°
2026-04-15 15:56 50.04754 8.61752 854 ft 112 kts 249°
2026-04-15 15:57 50.04480 8.60620 662 ft 111 kts 248°
2026-04-15 15:57 50.04211 8.59524 561 ft 107 kts 248°
2026-04-15 15:57 50.03956 8.58439 407 ft 105 kts 249°
2026-04-15 15:57 50.03725 8.57490 347 ft 78 kts 251°
2026-04-15 15:58 50.03588 8.56900 340 ft 46 kts 249°
2026-04-15 15:58 50.03487 8.56480 338 ft 37 kts 249°
2026-04-15 15:58 50.03404 8.56129 336 ft 32 kts 249°
2026-04-15 15:58 50.03327 8.55814 334 ft 27 kts 250°
2026-04-15 15:59 50.03240 8.55599 332 ft 22 kts 228°
2026-04-15 15:59 50.03130 8.55439 332 ft 21 kts 217°
2026-04-15 15:59 50.03119 8.55426 332 ft 0 kts 217°
2026-04-15 15:59 50.03116 8.55424 333 ft 2 kts 216°
2026-04-15 16:00 50.03087 8.55391 333 ft 8 kts 217°
2026-04-15 16:00 50.03033 8.55315 332 ft 0 kts 225°
2026-04-15 16:00 50.03019 8.55295 331 ft 6 kts 226°
2026-04-15 16:00 50.02990 8.55197 332 ft 14 kts 250°
2026-04-15 16:01 50.02943 8.55008 329 ft 22 kts 250°
2026-04-15 16:01 50.02891 8.54787 330 ft 21 kts 249°
2026-04-15 16:01 50.02838 8.54567 331 ft 22 kts 249°
2026-04-15 16:01 50.02787 8.54346 333 ft 21 kts 252°
2026-04-15 16:02 50.02732 8.54124 332 ft 22 kts 250°
2026-04-15 16:02 50.02679 8.53898 331 ft 22 kts 249°
2026-04-15 16:02 50.02621 8.53673 329 ft 23 kts 246°
2026-04-15 16:02 50.02516 8.53574 331 ft 18 kts 251°
2026-04-15 16:03 50.02470 8.53375 329 ft 20 kts 250°
2026-04-15 16:03 50.02418 8.53160 329 ft 21 kts 249°
2026-04-15 16:03 50.02366 8.52936 327 ft 23 kts 251°
2026-04-15 16:03 50.02306 8.52830 328 ft 12 kts 182°
2026-04-15 16:04 50.02210 8.52829 328 ft 15 kts 181°
2026-04-15 16:04 50.02148 8.52912 329 ft 15 kts 84°
2026-04-15 16:04 50.02168 8.53073 332 ft 15 kts 23°
2026-04-15 16:04 50.02229 8.53217 333 ft 18 kts 70°
2026-04-15 16:05 50.02198 8.53289 335 ft 10 kts 144°
2026-04-15 16:05 50.02193 8.53295 335 ft 0 kts 145°